{"data":{"norad_id":52706,"intl_designator":"2022-053BC","name":"STARLINK-3970","alt_names":[],"object_type":"PAYLOAD","status":"ACTIVE","operator":null,"country":"US","launch_date":"2022-05-18","launch_site_code":"AFETR","launch_vehicle":null,"mission":null,"orbit_class":"UNKNOWN","rcs_meters":null,"size_class":null,"mass_kg":null,"dimensions":null,"purposes":["comms"],"wikipedia_slug":null,"has_3d_model":false,"image_url":null,"decayed_at":null,"tle_current":{"epoch":"2026-05-24T23:46:27.236064Z","epoch_age_seconds":72048,"freshness":"FRESH","line1":"1 52706U 22053BC  26144.99059301 -.00000713  00000+0 -26731-4 0  9990","line2":"2 52706  53.2126 151.5916 0001142  78.7950 281.3171 15.08833582222836","mean_motion":15.08833582,"eccentricity":0.0001142,"inclination_deg":53.2126,"raan_deg":151.5916,"arg_perigee_deg":78.795,"mean_anomaly_deg":281.3171,"bstar":-2.6731e-5,"rev_number":22283,"period_min":95.43796063256,"perigee_km":538.97298211136,"apogee_km":540.5530304728,"semimajor_km":6917.9000062921,"source":"CELESTRAK","updated_at":"2026-05-25T13:38:17.239452Z"}}}